Change the Weather History Date:

Saturday, September 17, 2011

  Actual Average Record
Temperature  
Mean Temperature 45 °F -  
Max Temperature 60 °F 64 °F 79 °F (1948)
Min Temperature 30 °F 50 °F 30 °F (2011)
Degree Days  
Heating Degree Days 20    
Moisture  
Dew Point 35 °F    
Average Humidity 67    
Maximum Humidity 87    
Minimum Humidity 48    
Precipitation  
Precipitation 0.00 in - - ()
Sea Level Pressure  
Sea Level Pressure 30.36 in    
Wind  
Wind Speed 4 mph (SSE)    
Max Wind Speed 13 mph    
Max Gust Speed -    
Visibility 10 miles    
Events      
Averages and records for this station are not official NWS values.
T = Trace of Precipitation, MM = Missing Value Source: NWS Daily Summary

Daily Weather History Graph

Daily Weather History Graph

Search for Another Location

Airport or City:

Trip Planner

Search our weather history database for the weather conditions in past years. The results will help you decide how hot, cold, wet, or windy it might be!

Date:

Astronomy

Sep. 17, 2011 Rise Set
Actual Time 7:28 AM EDT 7:56 PM EDT
Civil Twilight 6:58 AM EDT 8:25 PM EDT
Nautical Twilight 6:23 AM EDT 9:01 PM EDT
Astronomical Twilight 5:47 AM EDT 9:37 PM EDT
Moon 10:05 PM EDT (9/17) 12:50 PM EDT (9/17)
Length of Visible Light 13h 26m
Length of Day
12h 27m
Waning Gibbous, 77% of the Moon is Illuminated
Sep 17
Waning Gibbous
Sep 20
Last Quarter
Sep 27
New
Oct 3
First Quarter
Oct 11
Full

Hourly Weather History & Observations

Time (EDT) Temp. Windchill Dew Point Humidity Pressure Visibility Wind Dir Wind Speed Gust Speed Precip Events Conditions
12:15 AM 42.8 °F 39.3 °F 33.8 °F 70% 30.33 in 10.0 mi West 5.8 mph - N/A   Clear
12:55 AM 41.0 °F - 33.8 °F 76% 30.33 in 10.0 mi Calm Calm - N/A   Clear
1:15 AM 35.6 °F - 30.2 °F 81% 30.33 in 10.0 mi Calm Calm - N/A   Clear
1:35 AM 35.6 °F - 28.4 °F 75% 30.33 in 10.0 mi Calm Calm - N/A   Clear
1:55 AM 37.4 °F - 30.2 °F 75% 30.33 in 10.0 mi Calm Calm - N/A   Clear
2:15 AM 33.8 °F - 28.4 °F 81% 30.34 in 10.0 mi Calm Calm - N/A   Clear
2:35 AM 35.6 °F - 30.2 °F 81% 30.34 in 10.0 mi Calm Calm - N/A   Clear
2:55 AM 35.6 °F 32.8 °F 30.2 °F 81% 30.34 in 10.0 mi NW 3.5 mph - N/A   Clear
3:15 AM 32.0 °F 27.5 °F 26.6 °F 80% 30.34 in 10.0 mi NW 4.6 mph - N/A   Clear
3:35 AM 33.8 °F 29.6 °F 30.2 °F 87% 30.34 in 10.0 mi NW 4.6 mph - N/A   Clear
3:55 AM 35.6 °F 31.7 °F 30.2 °F 81% 30.34 in 10.0 mi WNW 4.6 mph - N/A   Clear
4:15 AM 35.6 °F 32.8 °F 30.2 °F 81% 30.34 in 10.0 mi WNW 3.5 mph - N/A   Clear
4:35 AM 33.8 °F 30.8 °F 28.4 °F 81% 30.34 in 10.0 mi NW 3.5 mph - N/A   Clear
4:55 AM 33.8 °F 30.8 °F 28.4 °F 81% 30.36 in 10.0 mi WNW 3.5 mph - N/A   Clear
5:15 AM 33.8 °F 29.6 °F 30.2 °F 87% 30.36 in 10.0 mi WNW 4.6 mph - N/A   Clear
5:35 AM 35.6 °F 31.7 °F 30.2 °F 81% 30.36 in 10.0 mi NW 4.6 mph - N/A   Clear
5:55 AM 32.0 °F 27.5 °F 26.6 °F 80% 30.36 in 10.0 mi NW 4.6 mph - N/A   Clear
6:15 AM 30.2 °F - 24.8 °F 80% 30.36 in 10.0 mi Calm Calm - N/A   Clear
6:35 AM 30.2 °F - 24.8 °F 80% 30.37 in 10.0 mi Calm Calm - N/A   Clear
7:15 AM 30.2 °F - 24.8 °F 80% 30.38 in 10.0 mi Calm Calm - N/A   Clear
7:35 AM 30.2 °F 26.7 °F 24.8 °F 80% 30.38 in 10.0 mi NW 3.5 mph - N/A   Clear
7:55 AM 32.0 °F 27.5 °F 28.4 °F 87% 30.39 in 10.0 mi WNW 4.6 mph - N/A   Clear
8:15 AM 33.8 °F 30.8 °F 28.4 °F 81% 30.39 in 10.0 mi NW 3.5 mph - N/A   Clear
8:35 AM 33.8 °F - 30.2 °F 87% 30.39 in 10.0 mi Calm Calm - N/A   Clear
8:55 AM 39.2 °F - 33.8 °F 81% 30.39 in 10.0 mi Calm Calm - N/A   Clear
9:15 AM 42.8 °F - 35.6 °F 76% 30.39 in 9.0 mi Calm Calm - N/A   Clear
9:35 AM 46.4 °F - 35.6 °F 66% 30.40 in 7.0 mi Calm Calm - N/A   Clear
9:55 AM 48.2 °F - 35.6 °F 62% 30.39 in 10.0 mi Calm Calm - N/A   Mostly Cloudy
10:15 AM 51.8 °F - 37.4 °F 58% 30.39 in 10.0 mi East 3.5 mph - N/A   Mostly Cloudy
10:35 AM 53.6 °F - 37.4 °F 54% 30.39 in 10.0 mi Calm Calm - N/A   Scattered Clouds
10:55 AM 51.8 °F - 37.4 °F 58% 30.40 in 10.0 mi Calm Calm - N/A   Overcast
11:15 AM 53.6 °F - 39.2 °F 58% 30.40 in 10.0 mi ESE 3.5 mph - N/A   Overcast
11:35 AM 53.6 °F - 39.2 °F 58% 30.40 in 10.0 mi Calm Calm - N/A   Overcast
11:55 AM 53.6 °F - 37.4 °F 54% 30.40 in 9.0 mi ESE 3.5 mph - N/A   Overcast
12:15 PM 55.4 °F - 41.0 °F 58% 30.39 in 10.0 mi ESE 3.5 mph - N/A   Overcast
12:35 PM 57.2 °F - 41.0 °F 55% 30.39 in 10.0 mi ESE 9.2 mph - N/A   Mostly Cloudy
12:55 PM 57.2 °F - 44.6 °F 63% 30.39 in 10.0 mi SE 9.2 mph - N/A   Partly Cloudy
1:15 PM 57.2 °F - 44.6 °F 63% 30.38 in 10.0 mi SSE 11.5 mph - N/A   Clear
1:35 PM 59.0 °F - 42.8 °F 55% 30.37 in 10.0 mi ESE 10.4 mph - N/A   Clear
2:15 PM 59.0 °F - 42.8 °F 55% 30.37 in 10.0 mi SSE 9.2 mph - N/A   Clear
2:35 PM 60.8 °F - 44.6 °F 55% 30.37 in 10.0 mi SSE 6.9 mph - N/A   Clear
2:55 PM 60.8 °F - 44.6 °F 55% 30.36 in 10.0 mi SSE 9.2 mph - N/A   Clear
3:15 PM 60.8 °F - 42.8 °F 52% 30.35 in 10.0 mi SSE 10.4 mph - N/A   Clear
3:35 PM 60.8 °F - 42.8 °F 52% 30.35 in 10.0 mi SSE 10.4 mph - N/A   Clear
3:55 PM 60.8 °F - 42.8 °F 52% 30.35 in 10.0 mi SE 8.1 mph - N/A   Clear
4:15 PM 60.8 °F - 42.8 °F 52% 30.34 in 10.0 mi SSE 8.1 mph - N/A   Clear
4:35 PM 60.8 °F - 41.0 °F 48% 30.33 in 10.0 mi SE 9.2 mph - N/A   Clear
4:55 PM 60.8 °F - 41.0 °F 48% 30.33 in 10.0 mi SSE 12.7 mph - N/A   Clear
5:15 PM 60.8 °F - 41.0 °F 48% 30.33 in 10.0 mi South 10.4 mph - N/A   Clear
5:35 PM 60.8 °F - 41.0 °F 48% 30.32 in 10.0 mi SE 11.5 mph - N/A   Clear
5:55 PM 60.8 °F - 41.0 °F 48% 30.32 in 10.0 mi SE 9.2 mph - N/A   Clear
6:15 PM 59.0 °F - 39.2 °F 48% 30.32 in 10.0 mi ESE 10.4 mph - N/A   Clear
6:35 PM 59.0 °F - 41.0 °F 51% 30.32 in 10.0 mi SE 8.1 mph - N/A   Clear
6:55 PM 57.2 °F - 41.0 °F 55% 30.32 in 10.0 mi SE 9.2 mph - N/A   Clear
7:35 PM 57.2 °F - 41.0 °F 55% 30.31 in 10.0 mi SE 5.8 mph - N/A   Clear
7:55 PM 55.4 °F - 41.0 °F 58% 30.31 in 10.0 mi ESE 5.8 mph - N/A   Clear
8:15 PM 53.6 °F - 41.0 °F 62% 30.31 in 10.0 mi SE 6.9 mph - N/A   Clear
8:35 PM 51.8 °F - 41.0 °F 67% 30.31 in 10.0 mi ESE 4.6 mph - N/A   Clear
8:55 PM 51.8 °F - 41.0 °F 67% 30.31 in 10.0 mi ESE 3.5 mph - N/A   Clear
9:35 PM 46.4 °F - 39.2 °F 76% 30.31 in 10.0 mi Calm Calm - N/A   Clear
9:55 PM 42.8 °F - 37.4 °F 81% 30.32 in 10.0 mi Calm Calm - N/A   Clear
10:15 PM 42.8 °F - 37.4 °F 81% 30.32 in 10.0 mi Calm Calm - N/A   Clear
10:35 PM 42.8 °F - 37.4 °F 81% 30.31 in 10.0 mi Calm Calm - N/A   Clear
10:55 PM 41.0 °F - 35.6 °F 81% 30.31 in 10.0 mi Calm Calm - N/A   Clear
11:15 PM 41.0 °F - 35.6 °F 81% 30.31 in 10.0 mi Calm Calm - N/A   Clear
11:35 PM 39.2 °F - 35.6 °F 87% 30.31 in 10.0 mi Calm Calm - N/A   Clear
11:55 PM 39.2 °F - 35.6 °F 87% 30.30 in 10.0 mi Calm Calm - N/A   Clear